| time (UTC) | temp C | wind direction | speed KPH | gust KPH | rain 1hr cm | rain 24hr cm | rain mn cm | humidity % | barometer mb |
| 20260503190030 | 14 | 252 | 3.2 | 20.9 | 0.00 | 0.00 | 0.00 | 25 | 1012.3 |
| 20260503184534 | 14 | 124 | 1.6 | 20.9 | 0.00 | 0.00 | 0.00 | 26 | 1012.4 |
| 20260503183040 | 13 | 295 | 4.8 | 17.7 | 0.00 | 0.00 | 0.00 | 37 | 1012.6 |
| 20260503181530 | 13 | 293 | 6.4 | 20.9 | 0.00 | 0.00 | 0.00 | 37 | 1012.7 |
| 20260503180035 | 13 | 311 | 4.8 | 24.1 | 0.00 | 0.00 | 0.00 | 31 | 1012.8 |
| 20260503174538 | 13 | 311 | 4.8 | 20.9 | 0.00 | 0.00 | 0.00 | 41 | 1012.8 |
| 20260503173031 | 12 | 253 | 3.2 | 14.5 | 0.00 | 0.00 | 0.00 | 41 | 1012.9 |
| 20260503171534 | 11 | 33 | 8.0 | 17.7 | 0.00 | 0.00 | 0.00 | 33 | 1013.1 |
| 20260503081543 | 6 | 0 | 0.0 | 1.6 | 0.00 | 0.00 | 0.00 | 53 | 1011.1 |
| 20260503071548 | 7 | 0 | 0.0 | 0.0 | 0.00 | 0.00 | 0.00 | 51 | 1011.1 |
| 20260503054535 | 8 | 0 | 0.0 | 3.2 | 0.00 | 0.00 | 0.00 | 44 | 1011.4 |
| 20260503053028 | 8 | 257 | 0.0 | 4.8 | 0.00 | 0.00 | 0.00 | 44 | 1011.2 |
| 20260503051542 | 8 | 0 | 0.0 | 3.2 | 0.00 | 0.00 | 0.00 | 46 | 1011.4 |
| 20260503050028 | 8 | 0 | 0.0 | 1.6 | 0.00 | 0.00 | 0.00 | 44 | 1011.4 |
| 20260503044528 | 8 | 0 | 0.0 | 3.2 | 0.00 | 0.00 | 0.00 | 44 | 1011.7 |
| 20260503043027 | 9 | 321 | 0.0 | 3.2 | 0.00 | 0.00 | 0.00 | 43 | 1011.8 |
| 20260503041532 | 9 | 0 | 0.0 | 3.2 | 0.00 | 0.00 | 0.00 | 43 | 1011.6 |
| 20260503040028 | 9 | 297 | 0.0 | 3.2 | 0.00 | 0.00 | 0.00 | 43 | 1011.8 |
| 20260503034528 | 9 | 0 | 0.0 | 4.8 | 0.00 | 0.00 | 0.00 | 44 | 1011.9 |
| 20260503033030 | 9 | 317 | 0.0 | 3.2 | 0.00 | 0.00 | 0.00 | 44 | 1011.7 |
| 20260503031532 | 10 | 0 | 0.0 | 4.8 | 0.00 | 0.00 | 0.00 | 43 | 1011.6 |
| 20260503030035 | 10 | 311 | 0.0 | 3.2 | 0.00 | 0.00 | 0.00 | 43 | 1011.9 |
| 20260503024535 | 10 | 0 | 0.0 | 1.6 | 0.00 | 0.00 | 0.00 | 42 | 1011.7 |
| 20260503023028 | 10 | 0 | 0.0 | 4.8 | 0.00 | 0.00 | 0.00 | 40 | 1011.8 |
| 20260503021532 | 11 | 300 | 1.6 | 9.7 | 0.00 | 0.00 | 0.00 | 49 | 1011.8 |
| 20260503020027 | 11 | 279 | 1.6 | 6.4 | 0.00 | 0.00 | 0.00 | 40 | 1011.8 |
| 20260503014527 | 11 | 309 | 1.6 | 9.7 | 0.00 | 0.00 | 0.00 | 40 | 1011.6 |
| 20260503013034 | 11 | 312 | 0.0 | 6.4 | 0.00 | 0.00 | 0.00 | 40 | 1011.6 |
| 20260503011528 | 11 | 0 | 0.0 | 4.8 | 0.00 | 0.00 | 0.00 | 40 | 1011.8 |
| 20260503010031 | 11 | 309 | 0.0 | 3.2 | 0.00 | 0.00 | 0.00 | 39 | 1011.6 |
| 20260503004533 | 11 | 323 | 0.0 | 3.2 | 0.00 | 0.00 | 0.00 | 38 | 1011.4 |
| 20260503003036 | 11 | 0 | 0.0 | 3.2 | 0.00 | 0.00 | 0.00 | 37 | 1011.2 |
| 20260503001529 | 12 | 324 | 0.0 | 3.2 | 0.00 | 0.00 | 0.00 | 36 | 1011.0 |
| 20260503000028 | 12 | 0 | 0.0 | 4.8 | 0.00 | 0.00 | 0.00 | 35 | 1011.2 |
| 20260502234533 | 12 | 0 | 1.6 | 8.0 | 0.00 | 0.00 | 0.00 | 33 | 1011.0 |
| 20260502233027 | 13 | 323 | 0.0 | 8.0 | 0.00 | 0.00 | 0.00 | 34 | 1010.9 |
| 20260502231530 | 13 | 0 | 0.0 | 1.6 | 0.00 | 0.00 | 0.00 | 34 | 1011.0 |
| 20260502230032 | 13 | 0 | 0.0 | 3.2 | 0.00 | 0.00 | 0.00 | 32 | 1010.9 |
| 20260502224530 | 13 | 257 | 0.0 | 8.0 | 0.00 | 0.00 | 0.00 | 42 | 1011.0 |
| 20260502223028 | 14 | 253 | 0.0 | 9.7 | 0.00 | 0.00 | 0.00 | 31 | 1010.8 |
| 20260502221528 | 14 | 0 | 0.0 | 6.4 | 0.00 | 0.00 | 0.00 | 31 | 1010.7 |
| 20260502220027 | 14 | 312 | 0.0 | 9.7 | 0.00 | 0.00 | 0.00 | 30 | 1010.8 |
| 20260502214529 | 15 | 0 | 0.0 | 11.3 | 0.00 | 0.00 | 0.00 | 41 | 1010.8 |
| 20260502213038 | 15 | 278 | 1.6 | 8.0 | 0.00 | 0.00 | 0.00 | 43 | 1010.7 |
| 20260502211532 | 14 | 288 | 0.0 | 8.0 | 0.00 | 0.00 | 0.00 | 41 | 1010.6 |
| 20260502210028 | 15 | 302 | 0.0 | 8.0 | 0.00 | 0.00 | 0.00 | 43 | 1010.6 |
| 20260502204529 | 15 | 309 | 0.0 | 4.8 | 0.00 | 0.00 | 0.00 | 44 | 1010.4 |
| 20260502203030 | 15 | 0 | 1.6 | 12.9 | 0.00 | 0.00 | 0.00 | 43 | 1010.6 |
| 20260502201536 | 15 | 347 | 1.6 | 11.3 | 0.00 | 0.00 | 0.00 | 32 | 1010.5 |
| 20260502200027 | 16 | 270 | 1.6 | 9.7 | 0.00 | 0.00 | 0.00 | 40 | 1010.7 |
| 20260502194530 | 16 | 0 | 1.6 | 9.7 | 0.00 | 0.00 | 0.00 | 28 | 1010.9 |
| 20260502193029 | 16 | 246 | 1.6 | 12.9 | 0.00 | 0.00 | 0.00 | 43 | 1011.2 |
| 20260502191535 | 16 | 303 | 3.2 | 9.7 | 0.00 | 0.00 | 0.00 | 34 | 1011.5 |